{"data":{"norad_id":69728,"epoch":"2026-09-20T03:52:57.215712Z","epoch_age_seconds":55841,"freshness":"FRESH","line1":"1 69728U 26148A   26263.16177333 -.00000026  00000+0  00000+0 0  9990","line2":"2 69728   0.0171 129.0457 0000154  38.5940 134.3611  1.00270640   997","mean_motion":1.0027064,"eccentricity":1.54e-5,"inclination_deg":0.0171,"raan_deg":129.0457,"arg_perigee_deg":38.594,"mean_anomaly_deg":134.3611,"bstar":0,"rev_number":99,"period_min":1436.1133029569,"perigee_km":35786.266607494,"apogee_km":35787.565291125,"semimajor_km":42165.05294931,"source":"CELESTRAK","updated_at":"2026-09-20T09:00:25.079568Z"}}